Regional Weather Roundup
Issued by NWS Bismarck, ND

Home | Current Version | Previous Version | Text Only | Print | Product List | Glossary On
Versions: 1 2 3 4 5 6 7 8 9 10 11 12 13 14 15 16 17 18 19 20 21 22 23 24 25 26 27 28 29 30 31 32 33 34 35 36 37 38 39 40 41 42 43 44 45 46 47 48 49 50
000
ASUS43 KBIS 010520
RWRBIS

NWR BROADCAST TEXT
NATIONAL WEATHER SERVICE BISMARCK ND
1100 PM CST SAT FEB 28 2015

NOTE: "FAIR" INDICATES FEW OR NO CLOUDS BELOW 12,000 FEET WITH NO
SIGNIFICANT WEATHER AND/OR OBSTRUCTIONS TO VISIBILITY.


CITY           SKY/WX    TMP DP  RH WIND       PRES   REMARKS
WILLISTON      PTCLDY     5  -1  76 CALM      30.15S
MINOT          CLEAR      3  -3  76 SW10      30.13S WCI -12
MINOT AFB      CLEAR     -2  -6  84 W12       30.13S WCI -20
BISMARCK       CLEAR      6   1  80 SW7       30.21S WCI  -6
DICKINSON      CLEAR      6   0  76 W9        30.12R WCI  -8
GARRISON         N/A     -3  -7  82 W6        30.15R WCI -15
HETTINGER ARPT PTCLDY     5   0  79 W3        30.17R
JAMESTOWN      CLEAR      2  -3  80 W7        30.18R WCI -11
BEACH          FAIR       9   3  78 W10       30.14S WCI  -6
CARRINGTON     FAIR       0  -2  92 MISG      30.17S
CROSBY         FLURRIES  12   5  73 SW13      30.11S WCI  -3
HARVEY         FAIR      -4  -8  84 SW9       30.15S WCI -20
HAZEN          FAIR       0  -4  85 W3        30.18S
LINTON         FAIR       3   1  92 CALM      30.21S
MANDAN         FAIR       3   0  85 SW8       30.19S WCI -10
OAKES            N/A      3   0  85 W12       30.21S WCI -13
RUGBY          FAIR       0  -4  85 SW9       30.13F WCI -16
TIOGA          FAIR       0  -2  92 W7        30.13S WCI -13
WATFORD CITY   FAIR       1  -2  85 MISG      30.13S
$$

CITY           SKY/WX    TMP DP  RH WIND       PRES   REMARKS
GRAND FORKS    CLEAR      5  -2  72 W9        30.17R WCI  -9
GRAND FORKS AF CLEAR      5  -2  71 W6        30.16S WCI  -5
DEVILS LAKE    CLEAR      3  -2  78 W10       30.13S WCI -12
FARGO          CLEAR      7   0  73 W6        30.21S WCI  -3
CANDO          FAIR       0  -4  85 W12       30.12F WCI -18
CAVALIER       FAIR       9   1  72 W13       30.12S WCI  -7
GWINNER        CLEAR     10   3  72 W10       30.21F WCI  -3
ROLLA          FAIR       5   0  78 W14       30.07S WCI -12
WALHALLA         N/A      7   0  72 W16G24    30.11S WCI -11
$$

CITY           SKY/WX    TMP DP  RH WIND       PRES   REMARKS
ABERDEEN       PTCLDY     9   3  77 NW6       30.25R WCI  -1
MOBRIDGE       PTCLDY     5   2  87 CALM      30.19R
BUFFALO          N/A     12   6  77 W10       30.09R WCI  -1
RAPID CITY     CLOUDY    12   7  80 NW3       30.18R
GLASGOW        CLOUDY    19  10  68 NW10      30.15R WCI   7
SIDNEY         PTCLDY    10   7  85 E6        30.19R WCI   1
WOLF POINT     MOCLDY    20  10  65 W8        30.17R WCI  10
GLENDIVE       PTCLDY    10   3  72 W8        30.16S WCI  -1
MILES CITY     PTCLDY    11   6  81 W7        30.19R WCI   0
BAKER          CLEAR      8   2  76 W8        30.16R WCI  -4
$$

CITY           SKY/WX    TMP DP  RH WIND       PRES   REMARKS
BILLINGS       MOCLDY    17  10  74 NE8       30.16R WCI   7
GREAT FALLS    FAIR      11   7  84 SW9       30.19R WCI  -2
REGINA         FLURRIES  10   7  85 W12       30.07R WCI  -4
ESTEVAN        PTCLDY     5   0  78 W12       30.09S WCI -11
$$




USA.gov is the U.S. government's official web portal to all federal, state and local government web resources and services.